Location: Bord�res
(43.2000°N, 0.2167°W)
Time: 12:07:52
(UTC+00:00)

GP-B - Pass Details

Date: 03 March 2021
Orbit: 631 x 635 km, 89.8° (Epoch: 20 April)

Event Time Altitude Azimuth Distance (km) Brightness Sun altitude
Rises 19:20:31 0° 178° (S) 2,914 6.4 -16.8°
Reaches altitude 10° 19:22:43 10° 178° (S) 2,012 5.6 -17.2°
Maximum altitude 19:27:09 86° 266° (W) 642 3.1 -18.0°
Drops below altitude 10° 19:31:38 10° 357° (N) 2,030 5.8 -18.8°
Sets 19:33:52 0° 358° (N) 2,943 6.7 -19.2°
